• In Netherlands
  • List of Countries
  • For 7 days
  • Water Temperature
  • Satellite Maps
  • Weather Map
  • Weather Widgets
  • user-avatar
    Login

    Hourly Weather Laszkar Gah

    Today, 30 March, Thursday

    Time Temperature Precipitation Wind Pressure Humidity
    00:00 +26°C° 0 mm 2 mps 693 mmHg 31%
    01:00 +26°C° 0 mm 2 mps 693 mmHg 31%
    02:00 +25°C° 0 mm 2 mps 693 mmHg 32%
    03:00 +25°C° 0 mm 2 mps 692 mmHg 34%
    04:00 +24°C° 0 mm 2 mps 692 mmHg 35%
    05:00 +24°C° 0 mm 2 mps 693 mmHg 35%
    06:00 +24°C° 0 mm 2 mps 693 mmHg 35%
    07:00 +25°C° 0 mm 3 mps 693 mmHg 35%
    08:00 +26°C° 0 mm 3 mps 694 mmHg 31%
    09:00 +28°C° 0 mm 3 mps 694 mmHg 27%
    10:00 +29°C° 0 mm 2 mps 695 mmHg 23%
    11:00 +30°C° 0 mm 2 mps 694 mmHg 21%
    12:00 +31°C° 0 mm 2 mps 694 mmHg 20%
    13:00 +31°C° 0 mm 2 mps 694 mmHg 18%
    14:00 +32°C° 0 mm 2 mps 693 mmHg 17%
    15:00 +33°C° 0 mm 3 mps 693 mmHg 17%
    16:00 +33°C° 0 mm 3 mps 693 mmHg 16%
    17:00 +32°C° 0 mm 4 mps 693 mmHg 18%
    18:00 +30°C° 0 mm 4 mps 693 mmHg 20%
    19:00 +30°C° 0 mm 4 mps 693 mmHg 22%
    20:00 +29°C° 0 mm 4 mps 694 mmHg 24%
    21:00 +28°C° 0 mm 4 mps 694 mmHg 26%
    22:00 +27°C° 0 mm 4 mps 694 mmHg 27%
    23:00 +26°C° 0 mm 4 mps 694 mmHg 29%

    Tomorrow, 31 March, Friday

    Time Temperature Precipitation Wind Pressure Humidity
    00:00 +26°C° 0 mm 4 mps 694 mmHg 30%
    01:00 +25°C° 0 mm 3 mps 694 mmHg 32%
    02:00 +24°C° 0 mm 3 mps 694 mmHg 33%
    03:00 +24°C° 0 mm 3 mps 694 mmHg 35%
    04:00 +22°C° 0 mm 3 mps 694 mmHg 36%
    05:00 +22°C° 0 mm 3 mps 694 mmHg 37%
    06:00 +22°C° 0 mm 3 mps 695 mmHg 37%
    07:00 +22°C° 0 mm 3 mps 695 mmHg 38%
    08:00 +24°C° 0 mm 3 mps 696 mmHg 34%
    09:00 +26°C° 0 mm 4 mps 696 mmHg 30%
    10:00 +27°C° 0 mm 4 mps 697 mmHg 26%
    11:00 +28°C° 0 mm 4 mps 696 mmHg 24%
    12:00 +29°C° 0 mm 4 mps 696 mmHg 21%
    13:00 +30°C° 0 mm 5 mps 696 mmHg 18%
    14:00 +30°C° 0 mm 4 mps 696 mmHg 17%
    15:00 +30°C° 0 mm 4 mps 695 mmHg 16%
    16:00 +32°C° 0 mm 4 mps 695 mmHg 15%
    17:00 +30°C° 0 mm 4 mps 695 mmHg 16%
    18:00 +29°C° 0 mm 4 mps 695 mmHg 18%
    19:00 +29°C° 0 mm 3 mps 695 mmHg 19%
    20:00 +28°C° 0 mm 3 mps 695 mmHg 20%
    21:00 +27°C° 0 mm 3 mps 696 mmHg 21%
    22:00 +27°C° 0 mm 3 mps 696 mmHg 22%
    23:00 +26°C° 0 mm 2 mps 695 mmHg 23%

    Day after tomorrow, 1 April, Saturday

    Time Temperature Precipitation Wind Pressure Humidity
    00:00 +26°C° 0 mm 2 mps 695 mmHg 24%
    01:00 +25°C° 0 mm 2 mps 695 mmHg 24%
    02:00 +25°C° 0 mm 2 mps 695 mmHg 25%
    03:00 +24°C° 0 mm 2 mps 694 mmHg 25%
    04:00 +23°C° 0 mm 2 mps 694 mmHg 25%
    05:00 +24°C° 0 mm 2 mps 695 mmHg 25%
    06:00 +24°C° 0 mm 2 mps 695 mmHg 24%
    07:00 +24°C° 0 mm 2 mps 695 mmHg 24%
    08:00 +26°C° 0 mm 2 mps 696 mmHg 21%
    09:00 +27°C° 0 mm 2 mps 696 mmHg 18%
    10:00 +29°C° 0 mm 2 mps 696 mmHg 15%
    11:00 +30°C° 0 mm 2 mps 696 mmHg 14%
    12:00 +30°C° 0 mm 2 mps 696 mmHg 14%
    13:00 +31°C° 0 mm 2 mps 695 mmHg 13%
    14:00 +31°C° 0 mm 2 mps 695 mmHg 13%
    15:00 +33°C° 0 mm 3 mps 694 mmHg 13%
    16:00 +33°C° 0 mm 3 mps 693 mmHg 13%
    17:00 +31°C° 0 mm 3 mps 694 mmHg 14%
    18:00 +30°C° 0 mm 3 mps 694 mmHg 16%
    19:00 +30°C° 0 mm 3 mps 694 mmHg 17%
    20:00 +29°C° 0 mm 3 mps 694 mmHg 18%
    21:00 +28°C° 0 mm 2 mps 694 mmHg 20%
    22:00 +27°C° 0 mm 2 mps 694 mmHg 21%
    23:00 +27°C° 0 mm 2 mps 693 mmHg 22%

    2 April, Sunday

    Time Temperature Precipitation Wind Pressure Humidity
    00:00 +26°C° 0 mm 2 mps 693 mmHg 23%
    01:00 +25°C° 0 mm 1 mps 692 mmHg 24%
    02:00 +25°C° 0 mm 1 mps 692 mmHg 26%
    03:00 +24°C° 0 mm 1 mps 692 mmHg 27%
    04:00 +21°C° 0 mm 0 mps 692 mmHg 28%
    05:00 +24°C° 0 mm 1 mps 692 mmHg 27%
    06:00 +25°C° 0 mm 1 mps 692 mmHg 26%
    07:00 +25°C° 0 mm 1 mps 693 mmHg 25%
    08:00 +27°C° 0 mm 1 mps 693 mmHg 22%
    09:00 +28°C° 0 mm 1 mps 693 mmHg 19%
    10:00 +30°C° 0 mm 1 mps 694 mmHg 16%
    11:00 +31°C° 0 mm 2 mps 693 mmHg 15%
    12:00 +31°C° 0 mm 2 mps 693 mmHg 14%
    13:00 +32°C° 0 mm 2 mps 692 mmHg 13%
    14:00 +33°C° 0 mm 3 mps 692 mmHg 14%
    15:00 +34°C° 0 mm 4 mps 691 mmHg 14%
    16:00 +34°C° 0 mm 4 mps 691 mmHg 14%
    17:00 +33°C° 0 mm 4 mps 691 mmHg 16%
    18:00 +32°C° 0 mm 4 mps 691 mmHg 18%
    19:00 +30°C° 0 mm 3 mps 691 mmHg 20%
    20:00 +30°C° 0 mm 3 mps 691 mmHg 21%
    21:00 +29°C° 0 mm 3 mps 691 mmHg 23%
    22:00 +28°C° 0 mm 2 mps 691 mmHg 25%
    23:00 +28°C° 0 mm 2 mps 691 mmHg 26%

    3 April, Monday

    Time Temperature Precipitation Wind Pressure Humidity
    00:00 +27°C° 0 mm 2 mps 690 mmHg 27%
    01:00 +26°C° 0 mm 2 mps 690 mmHg 29%
    02:00 +26°C° 0 mm 2 mps 690 mmHg 30%
    03:00 +25°C° 0 mm 1 mps 689 mmHg 31%
    04:00 +25°C° 0 mm 1 mps 689 mmHg 33%
    05:00 +25°C° 0.1 mm 1 mps 690 mmHg 33%
    06:00 +25°C° 0.1 mm 2 mps 690 mmHg 33%
    07:00 +25°C° 0.1 mm 2 mps 691 mmHg 33%
    08:00 +27°C° 0.1 mm 3 mps 691 mmHg 30%
    09:00 +28°C° 0.1 mm 3 mps 692 mmHg 28%
    10:00 +29°C° 0.1 mm 3 mps 692 mmHg 25%
    11:00 +30°C° 0 mm 4 mps 691 mmHg 24%
    12:00 +30°C° 0 mm 5 mps 691 mmHg 22%
    13:00 +32°C° 0 mm 6 mps 691 mmHg 20%
    14:00 +32°C° 0 mm 6 mps 690 mmHg 20%
    15:00 +32°C° 0 mm 6 mps 690 mmHg 19%
    16:00 +32°C° 0 mm 6 mps 689 mmHg 19%
    17:00 +30°C° 0 mm 6 mps 689 mmHg 20%
    18:00 +30°C° 0 mm 5 mps 690 mmHg 21%
    19:00 +29°C° 0 mm 5 mps 690 mmHg 23%
    20:00 +28°C° 0 mm 4 mps 690 mmHg 24%
    21:00 +27°C° 0 mm 3 mps 689 mmHg 26%
    22:00 +26°C° 0 mm 2 mps 689 mmHg 28%
    23:00 +26°C° 0.1 mm 3 mps 689 mmHg 30%

    4 April, Tuesday

    Time Temperature Precipitation Wind Pressure Humidity
    00:00 +25°C° 0.1 mm 3 mps 689 mmHg 33%
    01:00 +24°C° 0.1 mm 3 mps 688 mmHg 35%
    02:00 +23°C° 0.3 mm 2 mps 688 mmHg 39%
    03:00 +23°C° 0.3 mm 2 mps 688 mmHg 43%
    04:00 +22°C° 0.3 mm 1 mps 688 mmHg 47%
    05:00 +21°C° 0 mm 2 mps 688 mmHg 46%
    06:00 +21°C° 0 mm 3 mps 689 mmHg 45%
    07:00 +21°C° 0 mm 3 mps 689 mmHg 44%
    08:00 +22°C° 0 mm 5 mps 689 mmHg 42%
    09:00 +22°C° 0 mm 7 mps 690 mmHg 39%
    10:00 +23°C° 0 mm 8 mps 690 mmHg 37%
    11:00 +23°C° 0 mm 9 mps 690 mmHg 34%
    12:00 +24°C° 0 mm 9 mps 689 mmHg 32%
    13:00 +24°C° 0 mm 10 mps 689 mmHg 30%
    14:00 +24°C° 0 mm 10 mps 689 mmHg 29%
    15:00 +24°C° 0 mm 10 mps 689 mmHg 27%
    16:00 +24°C° 0 mm 10 mps 689 mmHg 26%
    17:00 +23°C° 0 mm 10 mps 689 mmHg 26%
    18:00 +22°C° 0 mm 9 mps 690 mmHg 27%
    19:00 +21°C° 0 mm 9 mps 690 mmHg 27%
    20:00 +21°C° 0 mm 8 mps 690 mmHg 28%
    21:00 +20°C° 0 mm 8 mps 690 mmHg 29%
    22:00 +18°C° 0 mm 8 mps 691 mmHg 30%
    23:00 +17°C° 0 mm 8 mps 690 mmHg 31%
    Show more